CW9803 Weather Reports


time (UTC)temp
F
wind
direction
speed
knots
gust
knots
rain 1hr
in
rain 24hr
in
rain mn
in
humidity
%
barometer
mb
20260901224902 82 182 4.3 6.1 0.00 0.00 0.00 34 1004.5
20260901224358 83 170 3.5 5.2 0.00 0.00 0.00 34 1004.9
20260901223854 81 191 2.6 2.6 0.00 0.00 0.00 36 1004.8
20260901223349 81 148 0.9 1.7 0.00 0.00 0.00 36 1005.1
20260901222845 80 175 1.7 2.6 0.00 0.00 0.00 37 1005.1
20260901222342 80 142 0.9 0.9 0.00 0.00 0.00 37 1005.2
20260901221837 81 168 6.1 7.8 0.00 0.00 0.00 37 1005.3
20260901221332 80 155 4.3 6.1 0.00 0.00 0.00 37 1005.4
20260901220832 78 157 1.7 1.7 0.00 0.00 0.00 39 1005.5
20260901220331 77 166 1.7 2.6 0.00 0.00 0.00 39 1005.3
20260901215830 77 167 3.5 3.5 0.00 0.00 0.00 39 1005.5
20260901215329 77 146 2.6 3.5 0.00 0.00 0.00 38 1005.6
20260901214828 77 148 5.2 7.0 0.00 0.00 0.00 39 1005.6
20260901214327 77 156 1.7 3.5 0.00 0.00 0.00 39 1005.6
20260901213822 78 177 3.5 7.0 0.00 0.00 0.00 38 1005.6
20260901213322 77 209 7.0 9.6 0.00 0.00 0.00 40 1005.7
20260901212816 77 176 3.5 6.1 0.00 0.00 0.00 40 1005.8
20260901212312 78 181 2.6 3.5 0.00 0.00 0.00 39 1005.8
20260901211808 78 219 2.6 2.6 0.00 0.00 0.00 39 1005.7
20260901211304 77 150 1.7 2.6 0.00 0.00 0.00 38 1006.0
20260901210759 78 150 1.7 2.6 0.00 0.00 0.00 38 1006.0
20260901210255 77 181 3.5 6.1 0.00 0.00 0.00 38 1005.9
20260901205751 77 188 1.7 2.6 0.00 0.00 0.00 38 1006.1
20260901205250 77 154 3.5 6.1 0.00 0.00 0.00 38 1006.0
20260901204745 78 140 0.9 0.9 0.00 0.00 0.00 37 1006.1
20260901204236 79 152 0.9 1.7 0.00 0.00 0.00 37 1006.4
20260901203731 79 175 3.5 3.5 0.00 0.00 0.00 37 1006.4
20260901203231 79 149 0.0 0.0 0.00 0.00 0.00 37 1006.4
20260901202730 79 143 2.6 2.6 0.00 0.00 0.00 38 1006.5
20260901202226 80 181 2.6 2.6 0.00 0.00 0.00 36 1006.4
20260901201721 79 136 0.9 0.9 0.00 0.00 0.00 37 1006.4
20260901201220 80 165 4.3 6.1 0.00 0.00 0.00 35 1006.5
20260901200714 79 125 2.6 2.6 0.00 0.00 0.00 37 1006.5
20260901200210 78 188 2.6 2.6 0.00 0.00 0.00 38 1006.5
20260901195707 77 178 2.6 3.5 0.00 0.00 0.00 39 1006.6
20260901195201 77 144 0.9 1.7 0.00 0.00 0.00 40 1006.8
20260901194658 76 159 3.5 3.5 0.00 0.00 0.00 40 1006.6
20260901194147 75 146 0.0 0.9 0.00 0.00 0.00 42 1006.8
20260901193642 75 139 3.5 3.5 0.00 0.00 0.00 41 1006.8
20260901193137 75 189 6.1 7.0 0.00 0.00 0.00 42 1007.0
20260901192631 75 145 3.5 5.2 0.00 0.00 0.00 42 1007.2
20260901192126 74 214 2.6 5.2 0.00 0.00 0.00 43 1007.3
20260901191623 73 153 1.7 3.5 0.00 0.00 0.00 44 1007.4
20260901191119 73 196 1.7 2.6 0.00 0.00 0.00 44 1007.7
20260901190614 73 164 0.0 0.0 0.00 0.00 0.00 44 1007.7
20260901190114 72 147 2.6 3.5 0.00 0.00 0.00 44 1007.5
20260901185612 73 133 3.5 6.1 0.00 0.00 0.00 43 1007.4
20260901185111 73 147 0.9 1.7 0.00 0.00 0.00 43 1007.5
20260901184606 73 179 1.7 2.6 0.00 0.00 0.00 42 1007.5
20260901184101 73 129 2.6 5.2 0.00 0.00 0.00 42 1007.9
20260901183556 73 156 3.5 6.1 0.00 0.00 0.00 41 1008.0
20260901183052 72 190 7.8 13.0 0.00 0.00 0.00 41 1007.8
20260901182548 67 163 2.6 3.5 0.00 0.00 0.00 44 1007.9
20260901182048 66 122 0.0 0.9 0.00 0.00 0.00 42 1008.0
20260901181547 66 144 0.0 0.0 0.00 0.00 0.00 42 1007.8
20260901181046 65 151 0.0 0.0 0.00 0.00 0.00 43 1008.0
20260901180545 65 141 0.0 0.0 0.00 0.00 0.00 44 1007.7
20260901180040 64 121 0.0 0.0 0.00 0.00 0.00 42 1007.3
20260901175539 64 124 0.0 0.0 0.00 0.00 0.00 42 1007.4
20260901175034 64 96 0.0 0.9 0.00 0.00 0.00 42 1007.3
20260901174530 64 141 0.9 0.9 0.00 0.00 0.00 42 1007.4
20260901174026 63 261 3.5 3.5 0.00 0.00 0.00 43 1007.2
20260901173526 63 164 0.0 0.9 0.00 0.00 0.00 43 1007.0
20260901173022 63 91 0.0 0.9 0.00 0.00 0.00 46 1006.9
20260901172517 63 98 0.9 0.9 0.00 0.00 0.00 46 1007.3
20260901172015 63 74 2.6 2.6 0.00 0.00 0.00 42 1007.1
20260901171515 63 139 0.0 0.0 0.00 0.00 0.00 42 1007.0
20260901171014 62 135 0.0 0.0 0.00 0.00 0.00 43 1007.2
20260901170508 62 143 0.0 0.0 0.00 0.00 0.00 43 1007.3
20260901170009 62 203 1.7 1.7 0.00 0.00 0.00 44 1007.1
20260901165503 62 116 0.9 0.9 0.00 0.00 0.00 41 1006.6
20260901164958 61 134 0.0 0.0 0.00 0.00 0.00 43 1006.6
20260901164454 61 130 0.0 0.0 0.00 0.00 0.00 44 1006.6
20260901163948 61 54 1.7 1.7 0.00 0.00 0.00 44 1006.6
20260901163444 61 123 0.0 0.0 0.00 0.00 0.00 46 1006.8
20260901162942 61 145 0.0 0.0 0.00 0.00 0.00 46 1007.0
20260901162438 60 139 0.0 0.0 0.00 0.00 0.00 46 1007.0
20260901161931 60 88 0.9 0.9 0.00 0.00 0.00 48 1007.3
20260901161431 60 70 1.7 1.7 0.00 0.00 0.00 47 1007.0
20260901160921 59 93 0.9 0.9 0.00 0.00 0.00 47 1007.2
20260901160416 58 42 0.9 1.7 0.00 0.00 0.00 47 1007.5
20260901155915 58 105 0.9 0.9 0.00 0.00 0.00 47 1007.4
20260901155410 58 242 1.7 2.6 0.00 0.00 0.00 49 1007.3
20260901154907 58 124 0.0 0.9 0.00 0.00 0.00 49 1007.5
20260901154406 56 144 0.0 0.0 0.00 0.00 0.00 51 1007.5
20260901153901 55 122 0.0 0.0 0.00 0.00 0.00 52 1007.8
20260901153400 55 163 0.0 0.0 0.00 0.00 0.00 54 1007.5
20260901152859 54 115 0.0 0.0 0.00 0.00 0.00 56 1007.4
20260901152354 53 194 0.9 0.9 0.00 0.00 0.00 57 1007.5
20260901151844 53 165 0.9 0.9 0.00 0.00 0.00 56 1007.3
20260901151343 54 148 0.9 1.7 0.00 0.00 0.00 56 1007.0
20260901150843 54 144 0.9 0.9 0.00 0.00 0.00 54 1007.2
20260901150340 53 140 0.9 0.9 0.00 0.00 0.00 56 1007.3
20260901145838 53 137 0.0 0.0 0.00 0.00 0.00 54 1007.0
20260901145333 52 137 0.0 0.0 0.00 0.00 0.00 56 1006.7
20260901144828 51 145 0.0 0.0 0.00 0.00 0.00 61 1006.7
20260901144323 51 136 0.0 0.0 0.00 0.00 0.00 61 1006.8
20260901143819 50 112 0.9 0.9 0.00 0.00 0.00 63 1006.8
20260901143316 50 134 0.0 0.0 0.00 0.00 0.00 63 1006.6
20260901142812 50 142 0.0 0.0 0.00 0.00 0.00 62 1006.6
20260901142310 51 122 0.0 0.9 0.00 0.00 0.00 61 1006.5
20260901141806 50 128 0.0 0.0 0.00 0.00 0.00 59 1006.0
20260901141301 50 122 0.0 0.0 0.00 0.00 0.00 60 1006.2
20260901140759 49 127 0.0 0.0 0.00 0.00 0.00 61 1006.4
20260901140258 49 126 0.0 0.0 0.00 0.00 0.00 61 1006.2
20260901135753 49 114 0.0 0.0 0.00 0.00 0.00 61 1006.0
20260901135253 49 140 0.0 0.0 0.00 0.00 0.00 62 1006.2
20260901134749 49 191 1.7 1.7 0.00 0.00 0.00 62 1006.4
20260901134248 48 172 0.0 0.9 0.00 0.00 0.00 64 1006.4
20260901133743 48 126 0.0 0.0 0.00 0.00 0.00 64 1006.4
20260901133242 48 124 0.0 0.0 0.00 0.00 0.00 65 1006.2
20260901132740 48 130 0.0 0.0 0.00 0.00 0.00 65 1006.4
20260901132236 48 138 0.0 0.0 0.00 0.00 0.00 65 1006.2
20260901131730 48 132 0.0 0.0 0.00 0.00 0.00 66 1006.4
20260901131230 48 108 0.9 0.9 0.00 0.00 0.00 66 1006.5
20260901130725 47 122 0.0 0.0 0.00 0.00 0.00 66 1006.2
20260901130224 47 105 0.9 1.7 0.00 0.00 0.00 65 1006.2
20260901125722 47 116 0.0 0.0 0.00 0.00 0.00 66 1006.5
20260901125218 48 121 0.0 0.0 0.00 0.00 0.00 66 1006.4
20260901124712 48 160 0.0 0.0 0.00 0.00 0.00 66 1006.4
20260901124206 48 160 0.0 0.0 0.00 0.00 0.00 66 1006.5
20260901123701 47 160 0.0 0.0 0.00 0.00 0.00 67 1006.4
20260901123155 47 160 0.0 0.0 0.00 0.00 0.00 67 1006.5
20260901122653 47 161 0.0 0.0 0.00 0.00 0.00 67 1006.4
20260901122148 46 163 0.0 0.9 0.00 0.00 0.00 68 1006.4
20260901121643 46 154 0.0 0.0 0.00 0.00 0.00 67 1006.6
20260901121138 46 153 0.0 0.9 0.00 0.00 0.00 68 1006.5
20260901120633 47 154 0.9 0.9 0.00 0.00 0.00 68 1006.2
20260901120128 47 154 0.9 0.9 0.00 0.00 0.00 69 1006.1
20260901115623 47 153 0.9 0.9 0.00 0.00 0.00 69 1006.1
20260901115119 47 119 0.0 0.0 0.00 0.00 0.00 68 1006.5
20260901114615 47 119 0.0 0.0 0.00 0.00 0.00 66 1006.4
20260901114109 47 117 0.0 0.0 0.00 0.00 0.00 64 1006.5
20260901113607 48 131 0.0 0.0 0.00 0.00 0.00 63 1006.5
20260901113058 48 140 0.0 0.9 0.00 0.00 0.00 62 1006.4
20260901112557 48 132 0.0 0.0 0.00 0.00 0.00 62 1006.5
20260901112052 48 145 0.0 0.0 0.00 0.00 0.00 61 1006.5
20260901111550 48 135 0.0 0.9 0.00 0.00 0.00 60 1006.6
20260901111049 48 135 0.0 0.0 0.00 0.00 0.00 59 1006.5
20260901110545 48 132 0.0 0.0 0.00 0.00 0.00 61 1006.5
20260901110040 48 105 0.0 0.9 0.00 0.00 0.00 60 1006.5
20260901105537 48 124 0.0 0.0 0.00 0.00 0.00 60 1006.8
20260901105030 48 125 0.0 0.0 0.00 0.00 0.00 60 1006.7
20260901104527 48 125 0.0 0.0 0.00 0.00 0.00 60 1006.5
20260901104022 48 136 0.0 0.0 0.00 0.00 0.00 61 1006.8
20260901103522 47 144 0.0 0.0 0.00 0.00 0.00 61 1006.9
20260901103017 47 147 0.0 0.0 0.00 0.00 0.00 61 1007.0
20260901102512 47 117 0.0 0.0 0.00 0.00 0.00 62 1006.9
20260901102006 47 116 0.0 0.0 0.00 0.00 0.00 63 1006.9
20260901101501 47 115 0.0 0.0 0.00 0.00 0.00 62 1007.1
20260901100956 47 115 0.0 0.0 0.00 0.00 0.00 62 1006.9
20260901100451 48 115 0.0 0.0 0.00 0.00 0.00 62 1007.0
20260901095949 48 116 0.0 0.0 0.00 0.00 0.00 63 1006.8
20260901095449 48 115 0.0 0.0 0.00 0.00 0.00 66 1007.0
20260901094941 48 115 0.0 0.0 0.00 0.00 0.00 66 1006.8
20260901094441 48 116 0.0 0.0 0.00 0.00 0.00 66 1007.1
20260901093935 48 116 0.0 0.0 0.00 0.00 0.00 66 1007.0
20260901093430 48 116 0.0 0.0 0.00 0.00 0.00 64 1006.9
20260901092925 48 115 0.0 0.0 0.00 0.00 0.00 62 1006.9
20260901092421 48 115 0.0 0.0 0.00 0.00 0.00 61 1007.2
20260901091917 48 115 0.0 0.0 0.00 0.00 0.00 59 1007.2
20260901091416 49 115 0.0 0.0 0.00 0.00 0.00 57 1007.1
20260901090912 49 117 0.0 0.0 0.00 0.00 0.00 59 1007.1
20260901090411 49 116 0.0 0.0 0.00 0.00 0.00 57 1006.9
20260901085907 49 116 0.0 0.0 0.00 0.00 0.00 57 1007.0
20260901085403 49 115 0.0 0.0 0.00 0.00 0.00 56 1006.8
20260901084859 50 130 0.0 0.0 0.00 0.00 0.00 56 1006.9
20260901084354 50 130 0.0 0.0 0.00 0.00 0.00 57 1007.2
20260901083849 50 132 0.0 0.0 0.00 0.00 0.00 57 1007.1
20260901083344 50 132 0.0 0.0 0.00 0.00 0.00 59 1007.2
20260901082842 50 132 0.0 0.0 0.00 0.00 0.00 59 1007.1
20260901082338 50 132 0.0 0.0 0.00 0.00 0.00 56 1007.2
20260901081833 51 132 0.0 0.0 0.00 0.00 0.00 57 1007.0
20260901081328 51 130 0.0 0.0 0.00 0.00 0.00 57 1007.2
20260901080828 51 131 0.0 0.0 0.00 0.00 0.00 57 1007.2
20260901080322 51 131 0.0 0.0 0.00 0.00 0.00 55 1007.4
20260901075816 51 129 0.0 0.0 0.00 0.00 0.00 54 1007.1
20260901075311 52 126 0.0 0.0 0.00 0.00 0.00 55 1007.3
20260901074807 52 127 0.0 0.0 0.00 0.00 0.00 53 1007.3
20260901074301 52 133 0.0 0.0 0.00 0.00 0.00 52 1007.1
20260901073757 52 135 0.0 0.0 0.00 0.00 0.00 54 1007.2
20260901073252 52 136 0.0 0.0 0.00 0.00 0.00 54 1007.3
20260901072748 52 137 0.0 0.0 0.00 0.00 0.00 54 1007.1
20260901072242 53 136 0.0 0.0 0.00 0.00 0.00 54 1007.1
20260901071736 53 150 0.0 0.0 0.00 0.00 0.00 54 1007.1
20260901071231 52 151 0.0 0.0 0.00 0.00 0.00 56 1007.1
20260901070730 52 140 0.0 0.0 0.00 0.00 0.00 56 1007.2
20260901070225 53 140 0.0 0.0 0.00 0.00 0.00 56 1007.2
20260901065725 53 126 0.0 0.0 0.00 0.00 0.00 51 1007.2
20260901065220 53 123 0.0 0.0 0.00 0.00 0.00 50 1007.0
20260901064716 53 144 0.0 0.0 0.00 0.00 0.00 52 1007.2
20260901064212 53 129 0.0 0.0 0.00 0.00 0.00 51 1007.2
20260901063709 54 124 0.0 0.0 0.00 0.00 0.00 51 1007.3
20260901063205 54 124 0.0 0.0 0.00 0.00 0.00 52 1007.2
20260901062700 54 124 0.0 0.0 0.00 0.00 0.00 52 1007.2
20260901062156 54 152 0.9 0.9 0.00 0.00 0.00 53 1007.1
20260901061652 54 140 0.0 0.0 0.00 0.00 0.00 55 1007.2
20260901061152 55 147 0.0 0.0 0.00 0.00 0.00 54 1007.4
20260901060647 55 131 0.0 0.0 0.00 0.00 0.00 52 1007.3
20260901060142 55 109 0.0 0.9 0.00 0.00 0.00 51 1007.5
20260901055638 55 151 0.0 0.0 0.00 0.00 0.00 52 1007.4
20260901055134 56 154 0.0 0.0 0.00 0.00 0.00 50 1007.4
20260901054631 56 139 0.0 0.0 0.00 0.00 0.00 50 1007.4
20260901054127 57 148 0.9 0.9 0.00 0.00 0.00 49 1007.3
20260901053623 57 128 0.0 0.0 0.00 0.00 0.00 49 1007.4
20260901053118 57 138 0.0 0.0 0.00 0.00 0.00 47 1007.2
20260901052618 57 141 0.0 0.0 0.00 0.00 0.00 47 1007.3
20260901052114 57 151 0.0 0.0 0.00 0.00 0.00 48 1007.7
20260901051613 58 149 0.0 0.0 0.00 0.00 0.00 49 1007.5
20260901051112 58 133 0.0 0.0 0.00 0.00 0.00 48 1007.4
20260901050608 58 147 0.9 0.9 0.00 0.00 0.00 48 1007.4
20260901045557 59 156 0.0 0.0 0.00 0.00 0.00 40 1007.4
20260901045052 60 150 0.0 0.0 0.00 0.00 0.00 39 1007.4
20260901044548 60 127 0.0 0.0 0.00 0.00 0.00 39 1007.5
20260901044044 61 124 0.0 0.0 0.00 0.00 0.00 38 1007.5
20260901043539 61 118 0.0 0.0 0.00 0.00 0.00 37 1007.5
20260901043035 62 169 0.9 0.9 0.00 0.00 0.00 37 1007.4
20260901042534 62 105 0.9 0.9 0.00 0.00 0.00 38 1007.7
20260901042029 62 175 0.9 0.9 0.00 0.00 0.00 38 1007.5
20260901041525 62 148 0.0 0.0 0.00 0.00 0.00 38 1007.8
20260901041019 63 128 0.0 0.0 0.00 0.00 0.00 38 1007.8
20260901040513 63 117 0.0 0.0 0.00 0.00 0.00 36 1007.8
20260901040008 63 123 0.0 0.0 0.00 0.00 0.00 35 1007.3
20260901035506 64 124 0.0 0.0 0.00 0.00 0.00 35 1007.8
20260901035005 64 113 0.9 0.9 0.00 0.00 0.00 34 1007.8
20260901034504 64 171 0.9 0.9 0.00 0.00 0.00 34 1007.5
20260901033959 64 158 1.7 1.7 0.00 0.00 0.00 33 1007.8
20260901033458 64 33 3.5 3.5 0.00 0.00 0.00 34 1007.5
20260901032957 65 114 0.0 0.0 0.00 0.00 0.00 34 1007.5
20260901032452 66 105 0.0 0.0 0.00 0.00 0.00 34 1007.2
20260901031947 66 143 0.0 0.0 0.00 0.00 0.00 34 1007.3
20260901031442 66 143 0.0 0.0 0.00 0.00 0.00 36 1007.1
20260901030941 67 143 0.0 0.0 0.00 0.00 0.00 33 1007.1
20260901030437 68 141 0.0 0.0 0.00 0.00 0.00 33 1007.0
20260901025936 68 141 0.0 0.0 0.00 0.00 0.00 32 1007.1
20260901025432 69 141 0.0 0.0 0.00 0.00 0.00 32 1006.9
20260901024931 69 141 0.0 0.0 0.00 0.00 0.00 31 1007.0
20260901024426 70 141 0.0 0.0 0.00 0.00 0.00 29 1006.8
20260901023924 71 147 0.0 0.0 0.00 0.00 0.00 28 1006.8
20260901023419 71 128 0.0 0.0 0.00 0.00 0.00 28 1006.9
20260901022915 71 116 0.0 0.0 0.00 0.00 0.00 28 1006.8
20260901022410 72 122 0.0 0.0 0.00 0.00 0.00 27 1006.8
20260901021905 72 140 0.0 0.0 0.00 0.00 0.00 27 1006.9
20260901021401 73 140 0.0 0.0 0.00 0.00 0.00 28 1007.1
20260901020855 74 133 0.0 0.0 0.00 0.00 0.00 27 1007.0
20260901020351 76 105 0.9 0.9 0.00 0.00 0.00 27 1007.1
20260901015850 77 188 0.9 0.9 0.00 0.00 0.00 27 1007.0
20260901015347 79 160 0.0 0.0 0.00 0.00 0.00 28 1006.9
20260901014846 80 145 0.0 0.0 0.00 0.00 0.00 27 1006.9
20260901014342 81 149 0.0 0.0 0.00 0.00 0.00 25 1007.2
20260901013837 83 168 0.0 0.0 0.00 0.00 0.00 23 1007.1
20260901013333 84 167 0.9 0.9 0.00 0.00 0.00 20 1007.0
20260901012828 85 137 0.0 0.0 0.00 0.00 0.00 18 1007.2
20260901012323 86 147 0.0 0.0 0.00 0.00 0.00 18 1007.2
20260901011819 85 166 0.9 0.9 0.00 0.00 0.00 16 1007.0
20260901011314 86 161 0.0 0.9 0.00 0.00 0.00 16 1007.0
20260901010808 87 101 1.7 1.7 0.00 0.00 0.00 17 1007.1
20260901010302 87 144 0.0 0.0 0.00 0.00 0.00 15 1007.2
20260901005801 86 151 0.0 0.0 0.00 0.00 0.00 15 1007.1
20260901005256 87 162 0.9 1.7 0.00 0.00 0.00 16 1007.3
20260901004750 88 151 0.0 0.9 0.00 0.00 0.00 16 1007.1
20260901004245 88 146 0.0 0.0 0.00 0.00 0.00 16 1007.3
20260901003744 87 141 0.0 0.0 0.00 0.00 0.00 17 1007.3
20260901003239 86 143 0.0 0.0 0.00 0.00 0.00 15 1007.2
20260901002733 86 155 0.0 0.0 0.00 0.00 0.00 16 1007.7
20260901002228 86 154 0.0 0.9 0.00 0.00 0.00 16 1007.3
20260901001723 87 146 0.0 0.0 0.00 0.00 0.00 16 1007.5
20260901001219 86 150 2.6 2.6 0.00 0.00 0.00 16 1007.4
20260901000714 86 148 0.0 0.0 0.00 0.00 0.00 16 1007.7
20260901000211 87 155 0.0 0.0 0.00 0.00 0.00 16 1007.9
20260831235708 87 156 0.0 0.9 0.00 0.00 0.00 16 1007.5
20260831235204 87 181 0.9 0.9 0.00 0.00 0.00 16 1007.8
20260831234703 86 161 0.0 0.0 0.00 0.00 0.00 16 1007.7
20260831234158 87 196 1.7 2.6 0.00 0.00 0.00 16 1008.0
20260831233653 86 222 1.7 2.6 0.00 0.00 0.00 16 1007.8
20260831233149 86 216 3.5 3.5 0.00 0.00 0.00 16 1007.9
20260831232648 86 137 0.0 0.0 0.00 0.00 0.00 17 1008.0
20260831232145 87 258 0.9 0.9 0.00 0.00 0.00 17 1008.1
20260831231641 87 172 0.9 0.9 0.00 0.00 0.00 17 1008.0
20260831231137 87 328 2.6 2.6 0.00 0.00 0.00 16 1008.1
20260831230632 86 209 0.9 1.7 0.00 0.00 0.00 16 1008.1
20260831230127 86 177 0.9 0.9 0.00 0.00 0.00 16 1008.2
20260831225627 86 241 1.7 1.7 0.00 0.00 0.00 17 1008.4